Lamar, CO

1:31 AM MDT on March 26, 2017 (GMT -0600)
Lamar Municipal

Weather History for KLAA - December, 2012

Change the Weather History Date:

Saturday, December 29, 2012

  Actual Average Record
Temperature  
Mean Temperature 17 °F 28 °F  
Max Temperature 36 °F 43 °F 69 °F (1934)
Min Temperature -2 °F 12 °F -17 °F (1983)
Degree Days  
Heating Degree Days 48 37  
Month to date heating degree days 984 1023  
Since 1 July heating degree days 2063 2239  
Cooling Degree Days 0 0  
Month to date cooling degree days 0 0  
Year to date cooling degree days 1626 1121  
Moisture  
Dew Point 10 °F    
Average Humidity 65    
Maximum Humidity 87    
Minimum Humidity 43    
Precipitation  
Precipitation 0.00 in 0.01 in 0.19 in (2006)
Month to date precipitation 0.07  
Year to date precipitation 6.13  
Sea Level Pressure  
Sea Level Pressure 30.26 in    
Wind  
Wind Speed 9 mph (SW)    
Max Wind Speed 26 mph    
Max Gust Speed 32 mph    
Visibility 10 miles    
Events      
T = Trace of Precipitation, MM = Missing Value Source: NWS Daily Summary

Daily Weather History Graph

Daily Weather History Graph

Search for Another Location

Airport or City:

Trip Planner

Search our weather history database for the weather conditions in past years. The results will help you decide how hot, cold, wet, or windy it might be!

Date:

Astronomy

Dec. 29, 2012 Rise Set
Actual Time 7:06 AM MST 4:39 PM MST
Civil Twilight 6:37 AM MST 5:09 PM MST
Nautical Twilight 6:04 AM MST 5:42 PM MST
Astronomical Twilight 5:31 AM MST 6:14 PM MST
Moon 6:13 PM MST (12/29) 7:42 AM MST (12/29)
Length of Visible Light 10h 32m
Length of Day
9h 33m
Full, 98% of the Moon is Illuminated
Dec 29
Full
Jan 4
Last Quarter
Jan 11
New
Jan 18
First Quarter
Jan 26
Full

Hourly Weather History & Observations

Time (MST) Temp. Windchill Dew Point Humidity Pressure Visibility Wind Dir Wind Speed Gust Speed Precip Events Conditions
12:53 AM 15.1 °F 2.5 °F 9.0 °F 77% 30.26 in 10.0 mi WSW 10.4 mph - N/A   Clear
1:53 AM 17.1 °F 5.0 °F 9.0 °F 71% 30.27 in 10.0 mi WSW 10.4 mph - N/A   Clear
2:53 AM 14.0 °F 1.2 °F 7.0 °F 74% 30.28 in 10.0 mi West 10.4 mph - N/A   Clear
3:53 AM 6.1 °F -2.8 °F 1.9 °F 83% 30.32 in 10.0 mi WSW 4.6 mph - N/A   Clear
4:53 AM 1.0 °F -12.9 °F -2.9 °F 83% 30.37 in 10.0 mi SW 8.1 mph - N/A   Clear
5:53 AM 1.9 °F -11.8 °F -2.0 °F 83% 30.38 in 10.0 mi SW 8.1 mph - N/A   Clear
6:53 AM -2.0 °F -16.6 °F -6.0 °F 83% 30.42 in 10.0 mi SW 8.1 mph - N/A   Clear
7:53 AM 5.0 °F - -0.9 °F 76% 30.40 in 10.0 mi Calm Calm - N/A   Clear
8:53 AM 14.0 °F 2.0 °F 6.1 °F 71% 30.41 in 10.0 mi West 9.2 mph - N/A   Clear
9:53 AM 19.0 °F 8.2 °F 9.0 °F 65% 30.40 in 10.0 mi West 9.2 mph - N/A   Clear
10:53 AM 25.0 °F - 10.9 °F 55% 30.35 in 10.0 mi Calm Calm - N/A   Clear
11:53 AM 30.0 °F 26.5 °F 12.9 °F 49% 30.29 in 10.0 mi West 3.5 mph - N/A   Clear
12:53 PM 34.0 °F - 14.0 °F 44% 30.26 in 10.0 mi Calm Calm - N/A   Clear
1:53 PM 35.1 °F 30.1 °F 17.1 °F 48% 30.22 in 10.0 mi East 5.8 mph - N/A   Clear
2:53 PM 36.0 °F - 18.0 °F 48% 30.20 in 10.0 mi North - - N/A   Clear
3:53 PM 30.0 °F - 18.0 °F 61% 30.24 in 10.0 mi North - - N/A   Clear
4:53 PM 23.0 °F 11.7 °F 16.0 °F 74% 30.24 in 10.0 mi East 11.5 mph - N/A   Clear
5:53 PM 21.0 °F 8.6 °F 15.1 °F 78% 30.20 in 10.0 mi East 12.7 mph - N/A   Clear
6:53 PM 18.0 °F 7.7 °F 12.9 °F 81% 30.22 in 10.0 mi East 8.1 mph - N/A   Clear
7:53 PM 26.1 °F 21.9 °F 15.1 °F 63% 30.17 in 10.0 mi Variable 3.5 mph - N/A   Clear
8:53 PM 30.0 °F 17.2 °F 17.1 °F 59% 30.11 in 10.0 mi South 20.7 mph - N/A   Clear
9:53 PM 28.9 °F 16.9 °F 19.0 °F 67% 30.07 in 10.0 mi South 17.3 mph - N/A   Clear
11:53 PM 25.0 °F 14.2 °F 16.0 °F 69% 30.01 in 10.0 mi South 11.5 mph - N/A   Clear